QPF
0.00 0.00 0.00 0.00 0.00 0.00 0.00 0.01 0.01 0.01 0.02 0.01 0.01 0.01 0.02 0.04 0.03 0.04 0.04 0.03 0.06 0.05 0.02 0.02 0.02 0.03 0.04 0.05 0.09 0.13 0.13 0.10 0.09 0.07 0.05 0.05 0.04 0.04 0.05 0.04 0.03 0.03 0.02 0.01
0.00 0.00 0.00 0.00 0.00 0.00 0.01 0.01 0.02 0.02 0.02 0.01 0.01 0.01 0.02 0.04 0.05 0.04 0.03 0.02 0.02 0.05 0.03 0.02 0.03 0.04 0.05 0.10 0.12 0.11 0.13 0.11 0.10 0.09 0.07 0.05 0.04 0.03 0.04 0.06 0.06 0.04 0.03 0.03
0.00 0.00 0.00 0.00 0.00 0.00 0.01 0.01 0.01 0.02 0.02 0.01 0.01 0.02 0.02 0.03 0.04 0.04 0.02 0.02 0.01 0.02 0.02 0.01 0.01 0.02 0.02 0.08 0.09 0.08 0.10 0.09 0.07 0.06 0.06 0.08 0.07 0.05 0.05 0.06 0.08 0.09 0.07 0.06
0.00 0.00 0.00 0.00 0.00 0.00 0.01 0.01 0.01 0.02 0.02 0.02 0.01 0.02 0.02 0.03 0.05 0.04 0.03 0.02 0.02 0.01 0.01 0.01 0.01 0.01 0.02 0.03 0.06 0.07 0.06 0.05 0.03 0.03 0.04 0.04 0.04 0.03 0.03 0.04 0.06 0.09 0.08 0.07
0.00 0.00 0.00 0.00 0.00 0.00 0.01 0.01 0.01 0.01 0.02 0.01 0.01 0.01 0.02 0.02 0.04 0.05 0.03 0.02 0.02 0.01 0.01 0.01 0.00 0.01 0.01 0.03 0.05 0.05 0.06 0.06 0.03 0.02 0.04 0.05 0.06 0.05 0.03 0.03 0.05 0.05 0.05 0.05
0.00 0.00 0.00 0.00 0.00 0.00 0.01 0.01 0.02 0.01 0.00 0.01 0.01 0.01 0.01 0.02 0.02 0.04 0.05 0.04 0.03 0.02 0.02 0.02 0.02 0.01 0.02 0.05 0.06 0.05 0.05 0.05 0.03 0.03 0.04 0.05 0.06 0.06 0.04 0.03 0.03 0.03 0.03 0.03
0.00 0.00 0.00 0.00 0.00 0.00 0.01 0.00 0.02 0.01 0.01 0.01 0.01 0.01 0.02 0.02 0.02 0.03 0.03 0.05 0.04 0.03 0.03 0.04 0.04 0.04 0.02 0.03 0.05 0.05 0.03 0.03 0.03 0.03 0.04 0.04 0.05 0.04 0.03 0.02 0.02 0.02 0.02 0.03
0.00 0.00 0.00 0.00 0.00 0.00 0.00 0.00 0.01 0.01 0.02 0.02 0.02 0.03 0.03 0.03 0.03 0.03 0.03 0.03 0.04 0.06 0.05 0.05 0.04 0.03 0.03 0.03 0.03 0.06 0.06 0.04 0.04 0.04 0.03 0.05 0.07 0.05 0.03 0.02 0.03 0.02 0.02 0.03
0.00 0.00 0.00 0.00 0.00 0.00 0.00 0.00 0.00 0.00 0.02 0.04 0.05 0.07 0.05 0.04 0.04 0.03 0.03 0.03 0.03 0.05 0.07 0.05 0.05 0.04 0.05 0.06 0.05 0.06 0.08 0.08 0.07 0.06 0.04 0.04 0.04 0.05 0.04 0.03 0.04 0.03 0.03 0.03
0.00 0.00 0.00 0.00 0.00 0.00 0.00 0.00 0.00 0.01 0.02 0.04 0.07 0.09 0.10 0.09 0.09 0.06 0.04 0.03 0.02 0.03 0.06 0.06 0.05 0.05 0.05 0.05 0.08 0.11 0.09 0.08 0.08 0.06 0.05 0.04 0.05 0.07 0.07 0.07 0.06 0.05 0.05 0.04
0.00 0.00 0.00 0.00 0.00 0.00 0.00 0.00 0.00 0.00 0.01 0.04 0.10 0.14 0.10 0.10 0.11 0.09 0.07 0.04 0.03 0.02 0.02 0.04 0.06 0.04 0.03 0.04 0.05 0.10 0.13 0.11 0.09 0.07 0.07 0.07 0.08 0.10 0.11 0.11 0.08 0.06 0.05 0.05
0.00 0.00 0.00 0.00 0.00 0.00 0.00 0.00 0.00 0.00 0.01 0.03 0.07 0.10 0.06 0.06 0.07 0.07 0.07 0.07 0.04 0.03 0.03 0.03 0.03 0.02 0.03 0.05 0.07 0.10 0.11 0.10 0.10 0.09 0.11 0.10 0.09 0.09 0.08 0.06 0.06 0.07 0.07 0.07
0.00 0.00 0.01 0.01 0.00 0.00 0.00 0.01 0.01 0.00 0.01 0.02 0.04 0.06 0.04 0.05 0.06 0.07 0.07 0.09 0.06 0.07 0.09 0.07 0.06 0.04 0.03 0.03 0.08 0.11 0.11 0.10 0.10 0.10 0.09 0.07 0.06 0.07 0.07 0.08 0.08 0.08 0.08 0.08
0.00 0.00 0.01 0.01 0.01 0.01 0.01 0.01 0.01 0.01 0.01 0.01 0.02 0.04 0.04 0.06 0.08 0.09 0.08 0.06 0.05 0.07 0.14 0.13 0.08 0.06 0.05 0.04 0.05 0.09 0.12 0.16 0.15 0.11 0.08 0.08 0.07 0.07 0.07 0.09 0.09 0.09 0.09 0.10
0.00 0.00 0.00 0.01 0.01 0.02 0.02 0.01 0.01 0.01 0.01 0.01 0.02 0.03 0.03 0.04 0.08 0.11 0.13 0.10 0.08 0.09 0.11 0.11 0.07 0.04 0.04 0.04 0.04 0.05 0.07 0.13 0.18 0.16 0.08 0.06 0.06 0.07 0.09 0.10 0.10 0.10 0.10 0.10
0.01 0.01 0.01 0.02 0.02 0.01 0.01 0.01 0.01 0.01 0.01 0.01 0.01 0.04 0.05 0.04 0.06 0.09 0.10 0.13 0.15 0.19 0.10 0.05 0.05 0.04 0.04 0.04 0.04 0.04 0.05 0.11 0.11 0.09 0.08 0.07 0.08 0.10 0.11 0.12 0.12 0.11 0.10 0.09
0.01 0.02 0.02 0.03 0.03 0.03 0.02 0.01 0.01 0.01 0.01 0.01 0.02 0.04 0.06 0.06 0.07 0.09 0.08 0.12 0.16 0.19 0.17 0.11 0.09 0.06 0.05 0.04 0.03 0.03 0.03 0.09 0.10 0.07 0.07 0.06 0.07 0.10 0.13 0.13 0.10 0.09 0.09 0.09
0.02 0.02 0.03 0.03 0.02 0.03 0.02 0.02 0.02 0.02 0.01 0.02 0.03 0.05 0.05 0.06 0.09 0.15 0.19 0.19 0.13 0.12 0.12 0.15 0.16 0.11 0.10 0.08 0.06 0.05 0.05 0.07 0.08 0.07 0.06 0.05 0.06 0.09 0.13 0.13 0.11 0.10 0.10 0.09
0.02 0.04 0.04 0.04 0.04 0.03 0.03 0.04 0.04 0.04 0.04 0.04 0.04 0.05 0.04 0.06 0.08 0.09 0.11 0.12 0.15 0.13 0.14 0.13 0.14 0.13 0.12 0.10 0.08 0.06 0.05 0.06 0.06 0.06 0.05 0.05 0.07 0.09 0.10 0.12 0.13 0.13 0.11 0.11
0.02 0.03 0.03 0.03 0.05 0.04 0.04 0.04 0.07 0.08 0.09 0.06 0.06 0.06 0.06 0.05 0.07 0.09 0.07 0.09 0.19 0.18 0.12 0.09 0.09 0.10 0.12 0.10 0.06 0.05 0.05 0.05 0.05 0.05 0.05 0.06 0.07 0.09 0.10 0.11 0.15 0.16 0.15 0.15
0.04 0.04 0.03 0.04 0.06 0.06 0.03 0.04 0.08 0.11 0.13 0.10 0.08 0.09 0.09 0.08 0.06 0.06 0.09 0.12 0.15 0.11 0.08 0.06 0.07 0.10 0.09 0.06 0.04 0.04 0.06 0.06 0.05 0.04 0.04 0.05 0.06 0.08 0.10 0.12 0.15 0.15 0.16 0.16
0.05 0.05 0.04 0.05 0.07 0.08 0.05 0.06 0.10 0.10 0.10 0.14 0.11 0.09 0.08 0.06 0.05 0.04 0.04 0.06 0.09 0.07 0.06 0.05 0.05 0.09 0.08 0.05 0.04 0.05 0.05 0.05 0.04 0.04 0.05 0.07 0.07 0.08 0.09 0.12 0.12 0.12 0.15 0.15
0.06 0.07 0.05 0.05 0.06 0.08 0.09 0.10 0.11 0.11 0.13 0.13 0.11 0.08 0.06 0.05 0.03 0.03 0.02 0.02 0.03 0.03 0.05 0.05 0.05 0.07 0.08 0.06 0.05 0.06 0.06 0.07 0.07 0.07 0.06 0.06 0.06 0.06 0.07 0.08 0.09 0.10 0.10 0.10
0.09 0.07 0.05 0.06 0.08 0.12 0.13 0.14 0.15 0.12 0.12 0.11 0.08 0.07 0.06 0.06 0.05 0.04 0.04 0.02 0.02 0.02 0.03 0.03 0.03 0.05 0.07 0.07 0.06 0.06 0.06 0.07 0.08 0.08 0.07 0.06 0.07 0.08 0.10 0.09 0.08 0.08 0.07 0.08
0.12 0.09 0.08 0.09 0.11 0.14 0.16 0.16 0.16 0.16 0.13 0.11 0.10 0.07 0.06 0.06 0.05 0.03 0.03 0.02 0.03 0.03 0.03 0.03 0.04 0.04 0.05 0.05 0.05 0.05 0.05 0.06 0.10 0.11 0.09 0.08 0.09 0.09 0.08 0.07 0.05 0.07 0.07 0.07
0.12 0.12 0.11 0.10 0.09 0.12 0.19 0.16 0.14 0.15 0.14 0.14 0.13 0.08 0.07 0.06 0.04 0.03 0.02 0.03 0.03 0.04 0.04 0.04 0.04 0.04 0.04 0.05 0.05 0.05 0.05 0.06 0.08 0.09 0.09 0.09 0.09 0.07 0.05 0.04 0.04 0.05 0.06 0.07
MSLP
1009.01 1009.80 1010.32 1010.57 1010.59 1010.46 1010.26 1010.06 1009.94 1009.88 1009.88 1009.88 1009.85 1009.73 1009.51 1009.19 1008.81 1008.42 1008.08 1007.83 1007.71 1007.72 1007.85 1008.07 1008.35 1008.66 1008.99 1009.32 1009.66 1010.02 1010.42 1010.84 1011.27 1011.71 1012.11 1012.47 1012.75 1012.96 1013.10 1013.20 1013.28 1013.38 1013.53 1013.74
1009.52 1010.12 1010.47 1010.59 1010.55 1010.45 1010.36 1010.35 1010.44 1010.60 1010.77 1010.88 1010.86 1010.66 1010.27 1009.72 1009.08 1008.42 1007.85 1007.42 1007.18 1007.13 1007.26 1007.52 1007.85 1008.22 1008.58 1008.94 1009.29 1009.65 1010.04 1010.46 1010.90 1011.36 1011.79 1012.17 1012.47 1012.69 1012.82 1012.90 1012.97 1013.05 1013.19 1013.41
1009.80 1010.19 1010.35 1010.34 1010.26 1010.21 1010.26 1010.46 1010.79 1011.19 1011.55 1011.78 1011.77 1011.50 1010.94 1010.16 1009.26 1008.35 1007.55 1006.96 1006.61 1006.52 1006.67 1006.98 1007.38 1007.82 1008.24 1008.63 1009.00 1009.35 1009.72 1010.12 1010.54 1010.98 1011.41 1011.80 1012.11 1012.34 1012.48 1012.56 1012.63 1012.72 1012.87 1013.11
1009.84 1010.01 1009.99 1009.88 1009.78 1009.81 1010.04 1010.47 1011.06 1011.70 1012.26 1012.60 1012.62 1012.27 1011.56 1010.56 1009.42 1008.27 1007.27 1006.52 1006.08 1005.97 1006.14 1006.51 1007.00 1007.52 1008.01 1008.44 1008.82 1009.16 1009.50 1009.85 1010.23 1010.63 1011.02 1011.39 1011.70 1011.94 1012.10 1012.21 1012.30 1012.42 1012.60 1012.87
1009.67 1009.65 1009.48 1009.30 1009.23 1009.38 1009.80 1010.48 1011.33 1012.21 1012.95 1013.40 1013.44 1013.03 1012.18 1010.99 1009.63 1008.27 1007.08 1006.20 1005.69 1005.55 1005.76 1006.20 1006.77 1007.37 1007.93 1008.41 1008.79 1009.11 1009.39 1009.68 1009.99 1010.32 1010.67 1011.00 1011.30 1011.54 1011.73 1011.88 1012.02 1012.19 1012.42 1012.72
1009.39 1009.20 1008.94 1008.74 1008.74 1009.04 1009.67 1010.59 1011.68 1012.78 1013.69 1014.23 1014.29 1013.81 1012.85 1011.50 1009.96 1008.42 1007.09 1006.09 1005.52 1005.37 1005.59 1006.09 1006.73 1007.41 1008.02 1008.53 1008.92 1009.20 1009.43 1009.64 1009.86 1010.11 1010.39 1010.68 1010.95 1011.21 1011.43 1011.63 1011.83 1012.06 1012.34 1012.69
1009.09 1008.80 1008.49 1008.33 1008.43 1008.89 1009.73 1010.87 1012.17 1013.44 1014.47 1015.09 1015.15 1014.64 1013.58 1012.12 1010.45 1008.79 1007.34 1006.26 1005.63 1005.46 1005.69 1006.22 1006.90 1007.62 1008.27 1008.79 1009.17 1009.42 1009.59 1009.72 1009.85 1010.02 1010.22 1010.46 1010.71 1010.97 1011.22 1011.47 1011.74 1012.03 1012.37 1012.76
1008.87 1008.53 1008.25 1008.16 1008.40 1009.02 1010.02 1011.33 1012.78 1014.17 1015.28 1015.93 1016.00 1015.45 1014.35 1012.82 1011.08 1009.36 1007.85 1006.72 1006.05 1005.85 1006.06 1006.58 1007.26 1007.98 1008.63 1009.15 1009.50 1009.72 1009.83 1009.90 1009.96 1010.05 1010.19 1010.37 1010.60 1010.85 1011.13 1011.42 1011.74 1012.09 1012.48 1012.91
1008.80 1008.49 1008.28 1008.30 1008.65 1009.41 1010.53 1011.94 1013.46 1014.89 1016.01 1016.66 1016.72 1016.16 1015.05 1013.53 1011.80 1010.08 1008.57 1007.42 1006.72 1006.48 1006.65 1007.12 1007.76 1008.43 1009.04 1009.53 1009.86 1010.04 1010.12 1010.13 1010.14 1010.18 1010.26 1010.41 1010.61 1010.85 1011.14 1011.46 1011.82 1012.20 1012.62 1013.07
1008.95 1008.71 1008.59 1008.72 1009.18 1010.02 1011.19 1012.60 1014.10 1015.47 1016.54 1017.15 1017.19 1016.65 1015.58 1014.13 1012.49 1010.85 1009.40 1008.28 1007.58 1007.30 1007.39 1007.77 1008.32 1008.91 1009.45 1009.88 1010.17 1010.33 1010.38 1010.38 1010.37 1010.38 1010.43 1010.55 1010.72 1010.95 1011.23 1011.55 1011.91 1012.31 1012.74 1013.19
1009.30 1009.17 1009.16 1009.39 1009.91 1010.75 1011.87 1013.19 1014.56 1015.79 1016.73 1017.25 1017.27 1016.76 1015.80 1014.49 1013.01 1011.53 1010.22 1009.18 1008.50 1008.19 1008.20 1008.46 1008.88 1009.35 1009.79 1010.14 1010.39 1010.54 1010.60 1010.61 1010.61 1010.62 1010.67 1010.77 1010.92 1011.12 1011.36 1011.66 1012.00 1012.38 1012.78 1013.21
1009.83 1009.81 1009.90 1010.18 1010.70 1011.48 1012.47 1013.59 1014.73 1015.74 1016.50 1016.90 1016.88 1016.44 1015.62 1014.51 1013.27 1012.03 1010.91 1010.01 1009.39 1009.06 1009.00 1009.13 1009.40 1009.73 1010.05 1010.33 1010.54 1010.68 1010.77 1010.83 1010.87 1010.91 1010.98 1011.07 1011.19 1011.35 1011.54 1011.78 1012.06 1012.39 1012.75 1013.13
1010.47 1010.54 1010.71 1011.01 1011.47 1012.10 1012.87 1013.73 1014.56 1015.29 1015.82 1016.07 1016.01 1015.64 1015.00 1014.16 1013.22 1012.27 1011.41 1010.70 1010.18 1009.87 1009.74 1009.76 1009.88 1010.06 1010.27 1010.47 1010.65 1010.80 1010.94 1011.06 1011.16 1011.26 1011.35 1011.45 1011.54 1011.65 1011.78 1011.94 1012.14 1012.39 1012.69 1013.01
1011.14 1011.29 1011.49 1011.76 1012.11 1012.55 1013.05 1013.57 1014.06 1014.46 1014.73 1014.82 1014.73 1014.45 1014.01 1013.46 1012.85 1012.25 1011.69 1011.21 1010.84 1010.58 1010.42 1010.35 1010.35 1010.40 1010.50 1010.63 1010.80 1010.98 1011.17 1011.36 1011.55 1011.71 1011.84 1011.94 1012.01 1012.07 1012.12 1012.19 1012.31 1012.47 1012.68 1012.93
1011.78 1011.97 1012.17 1012.38 1012.58 1012.79 1012.99 1013.16 1013.29 1013.37 1013.37 1013.31 1013.18 1012.99 1012.77 1012.52 1012.27 1012.02 1011.79 1011.57 1011.38 1011.21 1011.05 1010.93 1010.84 1010.81 1010.83 1010.91 1011.07 1011.28 1011.54 1011.82 1012.08 1012.31 1012.49 1012.60 1012.65 1012.65 1012.63 1012.62 1012.64 1012.71 1012.84 1013.02
1012.34 1012.55 1012.71 1012.83 1012.88 1012.86 1012.76 1012.60 1012.39 1012.16 1011.93 1011.73 1011.57 1011.49 1011.47 1011.51 1011.60 1011.70 1011.79 1011.85 1011.86 1011.80 1011.70 1011.56 1011.43 1011.34 1011.31 1011.38 1011.54 1011.80 1012.12 1012.47 1012.81 1013.11 1013.32 1013.45 1013.48 1013.44 1013.36 1013.27 1013.22 1013.21 1013.26 1013.38
1012.81 1012.99 1013.11 1013.13 1013.03 1012.80 1012.45 1012.01 1011.52 1011.03 1010.61 1010.30 1010.14 1010.14 1010.31 1010.61 1011.00 1011.42 1011.81 1012.12 1012.33 1012.41 1012.38 1012.27 1012.14 1012.03 1011.99 1012.06 1012.25 1012.55 1012.93 1013.35 1013.76 1014.11 1014.36 1014.50 1014.52 1014.46 1014.34 1014.20 1014.09 1014.02 1014.03 1014.09
1013.17 1013.32 1013.37 1013.30 1013.08 1012.69 1012.15 1011.51 1010.82 1010.16 1009.61 1009.23 1009.08 1009.17 1009.48 1010.00 1010.63 1011.30 1011.94 1012.47 1012.85 1013.07 1013.13 1013.08 1012.98 1012.89 1012.87 1012.97 1013.19 1013.53 1013.97 1014.44 1014.89 1015.28 1015.56 1015.72 1015.75 1015.68 1015.54 1015.39 1015.25 1015.15 1015.12 1015.15
1013.46 1013.54 1013.54 1013.39 1013.08 1012.60 1011.95 1011.20 1010.41 1009.66 1009.06 1008.67 1008.54 1008.70 1009.13 1009.79 1010.59 1011.44 1012.25 1012.94 1013.46 1013.79 1013.94 1013.96 1013.92 1013.88 1013.90 1014.03 1014.29 1014.68 1015.15 1015.66 1016.15 1016.57 1016.87 1017.04 1017.09 1017.03 1016.90 1016.75 1016.61 1016.51 1016.47 1016.48
1013.68 1013.70 1013.63 1013.44 1013.09 1012.57 1011.90 1011.12 1010.32 1009.59 1009.00 1008.64 1008.56 1008.79 1009.29 1010.04 1010.93 1011.87 1012.77 1013.55 1014.16 1014.57 1014.80 1014.89 1014.91 1014.92 1015.00 1015.18 1015.48 1015.90 1016.40 1016.93 1017.44 1017.87 1018.18 1018.37 1018.44 1018.40 1018.29 1018.17 1018.05 1017.97 1017.93 1017.93
1013.87 1013.81 1013.69 1013.46 1013.11 1012.61 1011.98 1011.28 1010.56 1009.91 1009.40 1009.12 1009.11 1009.39 1009.94 1010.71 1011.62 1012.57 1013.49 1014.29 1014.93 1015.38 1015.65 1015.80 1015.88 1015.96 1016.09 1016.32 1016.66 1017.10 1017.61 1018.15 1018.65 1019.08 1019.41 1019.61 1019.69 1019.68 1019.61 1019.51 1019.43 1019.37 1019.35 1019.34
1014.01 1013.87 1013.70 1013.46 1013.12 1012.69 1012.17 1011.60 1011.03 1010.53 1010.17 1010.00 1010.07 1010.40 1010.96 1011.71 1012.58 1013.49 1014.36 1015.12 1015.74 1016.19 1016.48 1016.67 1016.80 1016.94 1017.12 1017.39 1017.75 1018.20 1018.72 1019.24 1019.73 1020.15 1020.46 1020.67 1020.76 1020.78 1020.74 1020.68 1020.62 1020.59 1020.57 1020.56
1014.10 1013.88 1013.65 1013.40 1013.12 1012.79 1012.41 1012.02 1011.64 1011.33 1011.15 1011.12 1011.29 1011.66 1012.22 1012.93 1013.73 1014.54 1015.32 1016.00 1016.56 1016.98 1017.27 1017.48 1017.65 1017.82 1018.04 1018.34 1018.72 1019.17 1019.66 1020.16 1020.62 1021.01 1021.31 1021.51 1021.61 1021.64 1021.62 1021.59 1021.55 1021.53 1021.52 1021.50
1014.13 1013.82 1013.54 1013.29 1013.06 1012.84 1012.63 1012.43 1012.28 1012.19 1012.20 1012.33 1012.61 1013.03 1013.58 1014.24 1014.94 1015.65 1016.31 1016.89 1017.37 1017.74 1018.02 1018.23 1018.42 1018.62 1018.86 1019.18 1019.56 1019.99 1020.45 1020.91 1021.33 1021.68 1021.95 1022.13 1022.23 1022.27 1022.26 1022.24 1022.22 1022.19 1022.17 1022.13
1014.06 1013.66 1013.34 1013.10 1012.93 1012.82 1012.78 1012.78 1012.85 1012.98 1013.19 1013.49 1013.88 1014.36 1014.91 1015.52 1016.14 1016.74 1017.30 1017.78 1018.18 1018.49 1018.74 1018.95 1019.14 1019.36 1019.61 1019.92 1020.28 1020.69 1021.11 1021.51 1021.88 1022.19 1022.43 1022.59 1022.68 1022.71 1022.71 1022.68 1022.65 1022.62 1022.58 1022.52
1013.88 1013.42 1013.07 1012.84 1012.73 1012.74 1012.84 1013.04 1013.32 1013.66 1014.06 1014.51 1015.01 1015.56 1016.12 1016.70 1017.26 1017.78 1018.25 1018.65 1018.99 1019.26 1019.48 1019.67 1019.87 1020.08 1020.33 1020.62 1020.95 1021.30 1021.67 1022.02 1022.33 1022.59 1022.79 1022.93 1023.00 1023.03 1023.03 1023.00 1022.96 1022.91 1022.85 1022.76
Thickness
5774 5758 5752 5762 5769 5771 5773 5770 5769 5783 5804 5799 5791 5792 5799 5806 5805 5802 5802 5802 5801 5801 5804 5803 5801 5798 5794 5788 5785 5781 5778 5776 5773 5769 5765 5762 5761 5762 5761 5761 5760 5759 5757 5756
5753 5750 5766 5775 5778 5775 5771 5764 5767 5783 5803 5797 5787 5788 5799 5804 5805 5807 5806 5804 5804 5800 5799 5799 5798 5797 5793 5789 5785 5781 5779 5776 5773 5770 5767 5764 5762 5760 5760 5759 5758 5757 5756 5754
5743 5758 5774 5772 5768 5765 5765 5763 5768 5773 5789 5795 5785 5775 5786 5799 5807 5810 5812 5811 5808 5805 5801 5800 5798 5796 5793 5790 5786 5784 5779 5776 5772 5769 5765 5762 5759 5757 5756 5755 5755 5755 5755 5753
5747 5764 5769 5764 5763 5765 5755 5779 5781 5779 5769 5760 5774 5746 5772 5786 5794 5800 5804 5806 5806 5806 5804 5802 5800 5796 5793 5791 5789 5784 5780 5776 5773 5769 5765 5761 5757 5754 5755 5755 5754 5754 5753 5752
5745 5763 5762 5760 5769 5773 5769 5787 5783 5779 5766 5756 5763 5748 5758 5779 5779 5791 5801 5805 5807 5808 5807 5804 5803 5800 5797 5793 5788 5784 5779 5775 5772 5769 5766 5761 5758 5757 5755 5754 5752 5751 5751 5750
5753 5771 5771 5772 5783 5785 5786 5779 5772 5761 5748 5733 5750 5747 5748 5766 5780 5790 5800 5806 5808 5808 5808 5805 5804 5800 5795 5792 5787 5782 5777 5774 5772 5769 5765 5762 5758 5755 5753 5751 5750 5749 5748 5748
5741 5757 5774 5782 5771 5777 5775 5745 5721 5721 5713 5721 5749 5748 5750 5780 5794 5798 5800 5804 5809 5809 5806 5803 5799 5795 5792 5789 5785 5781 5777 5772 5771 5768 5765 5762 5759 5756 5753 5752 5750 5748 5746 5746
5720 5728 5762 5776 5770 5760 5762 5746 5716 5707 5708 5719 5740 5739 5759 5787 5797 5803 5806 5807 5807 5805 5804 5803 5800 5798 5793 5789 5785 5782 5777 5773 5771 5768 5765 5763 5760 5757 5755 5753 5751 5749 5748 5747
5720 5728 5768 5782 5786 5775 5759 5747 5748 5725 5721 5714 5723 5741 5764 5785 5788 5794 5798 5799 5798 5801 5802 5801 5799 5796 5793 5789 5786 5783 5779 5774 5771 5768 5765 5762 5760 5757 5755 5753 5752 5750 5749 5748
5736 5729 5754 5776 5782 5779 5773 5761 5735 5719 5705 5701 5716 5728 5737 5760 5770 5781 5785 5788 5792 5797 5798 5797 5796 5795 5793 5791 5788 5785 5781 5776 5772 5768 5765 5763 5760 5757 5755 5752 5750 5749 5748 5748
5740 5727 5738 5755 5755 5754 5760 5753 5739 5722 5718 5703 5701 5719 5758 5762 5771 5775 5779 5786 5791 5792 5795 5795 5794 5793 5792 5790 5787 5783 5779 5774 5771 5768 5765 5762 5759 5757 5754 5751 5750 5749 5748 5746
5739 5723 5718 5737 5763 5774 5764 5754 5738 5720 5713 5712 5708 5723 5770 5771 5774 5777 5780 5788 5791 5791 5792 5793 5790 5789 5787 5785 5783 5779 5776 5773 5770 5768 5764 5760 5758 5756 5753 5751 5750 5749 5747 5746
5736 5717 5705 5715 5733 5753 5752 5753 5747 5734 5720 5710 5706 5728 5767 5768 5771 5776 5779 5784 5787 5787 5787 5786 5784 5783 5782 5781 5779 5777 5775 5772 5769 5766 5763 5759 5757 5754 5753 5751 5750 5748 5747 5745
5745 5716 5708 5704 5717 5734 5740 5748 5750 5734 5714 5713 5722 5735 5753 5760 5766 5771 5775 5780 5782 5782 5782 5781 5777 5778 5778 5777 5776 5775 5773 5771 5769 5765 5761 5758 5755 5754 5752 5751 5749 5748 5746 5744
5732 5714 5720 5727 5739 5743 5742 5745 5748 5740 5734 5727 5733 5739 5753 5761 5767 5770 5772 5773 5775 5775 5777 5777 5774 5773 5772 5771 5772 5771 5770 5768 5766 5763 5759 5757 5755 5753 5751 5749 5747 5746 5745 5743
5716 5710 5715 5719 5733 5737 5736 5742 5745 5746 5745 5742 5741 5741 5762 5766 5767 5766 5768 5770 5769 5770 5773 5774 5773 5770 5769 5768 5768 5768 5766 5765 5764 5760 5757 5755 5753 5750 5748 5746 5744 5743 5742 5740
5701 5700 5696 5697 5717 5724 5713 5729 5736 5739 5745 5743 5735 5745 5758 5756 5758 5760 5764 5766 5765 5766 5767 5768 5767 5767 5767 5766 5766 5764 5763 5762 5759 5756 5754 5752 5750 5747 5745 5744 5741 5740 5738 5737
5696 5691 5683 5687 5699 5688 5712 5738 5742 5740 5743 5747 5750 5754 5756 5755 5755 5758 5762 5761 5761 5762 5762 5762 5762 5762 5762 5763 5763 5762 5759 5757 5754 5751 5749 5748 5746 5743 5742 5739 5738 5736 5734 5733
5699 5689 5679 5675 5678 5691 5715 5729 5734 5730 5730 5745 5747 5748 5750 5753 5752 5750 5758 5760 5758 5759 5758 5758 5758 5757 5756 5757 5757 5756 5752 5750 5749 5746 5744 5744 5742 5740 5738 5736 5734 5733 5731 5728
5692 5689 5677 5672 5673 5675 5701 5726 5739 5732 5717 5739 5744 5743 5744 5747 5733 5735 5749 5754 5754 5754 5755 5754 5753 5752 5751 5751 5751 5748 5746 5744 5743 5742 5741 5740 5739 5736 5734 5732 5730 5729 5726 5723
5670 5671 5670 5668 5669 5681 5706 5724 5731 5707 5711 5732 5739 5741 5740 5738 5738 5741 5745 5746 5748 5749 5750 5750 5748 5745 5744 5745 5744 5741 5740 5738 5739 5739 5738 5736 5734 5732 5730 5728 5726 5723 5720 5718
5659 5660 5662 5662 5661 5672 5703 5712 5706 5707 5721 5727 5731 5734 5734 5734 5736 5736 5738 5738 5739 5740 5742 5742 5740 5736 5736 5738 5737 5734 5733 5734 5735 5734 5731 5730 5728 5727 5725 5722 5719 5717 5714 5710
5657 5661 5661 5663 5667 5682 5694 5699 5707 5714 5715 5720 5723 5727 5729 5727 5727 5726 5727 5729 5731 5732 5732 5733 5732 5730 5729 5730 5731 5727 5727 5729 5728 5727 5724 5722 5721 5719 5718 5715 5712 5710 5707 5704
5653 5662 5661 5662 5669 5678 5687 5696 5704 5709 5711 5715 5719 5722 5723 5721 5719 5718 5719 5720 5722 5723 5724 5725 5724 5723 5722 5723 5724 5723 5723 5723 5722 5718 5716 5714 5712 5710 5708 5707 5705 5703 5700 5697
5645 5651 5652 5655 5663 5671 5678 5685 5693 5699 5704 5707 5709 5711 5713 5713 5711 5711 5710 5711 5714 5715 5717 5718 5718 5717 5716 5717 5717 5717 5717 5716 5713 5711 5709 5706 5704 5701 5698 5696 5694 5693 5691 5691
5639 5641 5644 5648 5659 5663 5667 5677 5685 5688 5691 5694 5695 5697 5699 5702 5701 5702 5702 5702 5705 5706 5708 5709 5710 5709 5709 5710 5710 5710 5711 5710 5707 5703 5700 5698 5695 5693 5691 5688 5683 5681 5680 5680